Location: Oshawa
(43.9000°N, 78.8670°W)
Time: 11:10:41
(UTC-04:00)

Iridium 54 - Visible Passes

Search period start: 03 August 2015 00:00
Search period end: 13 August 2015 00:00
Orbit: 776 x 779 km, 86.4° (Epoch: 02 August)

Date Brightness Start Highest point End Pass type
(mag) Time Alt. Az. Time Alt. Az. Time Alt. Az.
03 Aug 7.4 21:28:14 10° ESE 21:30:26 13° ENE 21:32:55 10° NE visible
03 Aug 5.6 23:08:24 36° SSW 23:10:33 78° W 23:15:48 10° N visible
04 Aug 5.6 22:34:45 32° SSE 22:37:02 59° E 22:42:11 10° N visible
05 Aug 7.8 00:15:12 12° WSW 00:18:18 18° WNW 00:21:42 10° NNW visible
05 Aug 6.3 22:01:05 21° SE 22:03:39 33° E 22:08:18 10° NNE visible
05 Aug 7.1 23:41:32 19° SW 23:44:24 31° WNW 23:48:59 10° NNW visible
06 Aug 7.0 21:27:24 12° ESE 21:30:21 19° E 21:33:58 10° NE visible
06 Aug 6.1 23:07:51 26° SSW 23:10:41 55° W 23:15:49 10° N visible
07 Aug 5.4 22:34:08 26° S 22:37:07 84° E 22:42:21 10° N visible
08 Aug 8.1 00:16:22 10° W 00:18:41 12° WNW 00:20:44 10° NW visible
08 Aug 5.9 22:00:24 20° SSE 22:03:39 46° E 22:08:38 10° NNE visible
08 Aug 7.6 23:40:51 11° SW 23:44:41 22° WNW 23:48:39 10° NNW visible
09 Aug 6.6 21:26:39 13° SE 21:30:17 26° E 21:34:36 10° NNE visible
09 Aug 6.7 23:07:06 16° SW 23:10:52 38° W 23:15:43 10° NNW visible
10 Aug 7.2 20:54:18 10° ESE 20:57:01 15° ENE 20:59:58 10° NE visible
10 Aug 5.7 22:33:18 18° SSW 22:37:12 69° W 22:42:26 10° N visible
11 Aug 5.5 21:59:29 16° S 22:03:40 66° E 22:08:52 10° N visible
11 Aug 8.1 23:41:48 10° WSW 23:45:02 16° WNW 23:48:03 10° NW visible
12 Aug 6.1 21:25:37 10° SSE 21:30:15 37° E 21:35:02 10° NNE visible
12 Aug 7.3 23:06:39 10° SW 23:11:06 27° WNW 23:15:30 10° NNW visible
